Regional Weather Roundup
Issued by NWS Bismarck, ND

Home | Current Version | Previous Version | Text Only | Print | Product List | Glossary On
Versions: 1 2 3 4 5 6 7 8 9 10 11 12 13 14 15 16 17 18 19 20 21 22 23 24 25 26 27 28 29 30 31 32 33 34 35 36 37 38 39 40 41 42 43 44 45 46 47 48 49 50
000
ASUS43 KBIS 202120
RWRBIS

NWR BROADCAST TEXT
NATIONAL WEATHER SERVICE BISMARCK ND
400 PM CDT WED AUG 20 2014

NOTE: "FAIR" INDICATES FEW OR NO CLOUDS BELOW 12,000 FEET WITH NO
SIGNIFICANT WEATHER AND/OR OBSTRUCTIONS TO VISIBILITY.


CITY           SKY/WX    TMP DP  RH WIND       PRES   REMARKS
WILLISTON      LGT RAIN  72  66  81 SE5       29.73F
MINOT          CLOUDY    80  61  52 S14       29.71S
MINOT AFB      CLOUDY    84  63  49 S15       29.70S
BISMARCK       LGT RAIN  78  69  73 CALM      29.72S
DICKINSON      TSTM      69  66  90 NE10      29.75R
GARRISON         N/A     76  66  71 E8        29.73F
HETTINGER ARPT TSTM      73  68  84 S6        29.71R
JAMESTOWN      CLOUDY    80  67  64 SE14G22   29.75F
BEACH            N/A     72  57  60 NW14      29.79F
CARRINGTON     FAIR      81  68  65 SE15G22   29.76F
CROSBY         FAIR      75  68  78 S10G16    29.73F
HARVEY         FAIR      82  66  57 S12       29.74S
HAZEN          FAIR      72  64  78 SE5       29.74S
LINTON         FAIR      81  72  74 SE13      29.71S
MANDAN         LGT RAIN  72  70  94 NE9       29.71F
STANLEY        FAIR      73  63  68 NW7       29.74R
TIOGA          MOCLDY    75  75 100 NW7       29.78S
WATFORD CITY   MOCLDY    77  57  50 W7        29.74S
$$

CITY           SKY/WX    TMP DP  RH WIND       PRES   REMARKS
GRAND FORKS    PTSUNNY   83  67  58 SE14      29.77F
GRAND FORKS AF PTSUNNY   83  69  62 SE14      29.78F
DEVILS LAKE    CLOUDY    82  64  54 S15       29.74F
FARGO          PTSUNNY   83  67  58 SE13      29.78F
CANDO          FAIR      81  66  61 S10       29.77F
CAVALIER       FAIR      82  68  61 S13G18    29.76F
GRAFTON        FAIR      82  66  57 S15       29.77S
GWINNER        CLEAR     81  70  69 E10       29.77F
LANGDON        MOCLDY    84  64  51 S13G20    29.79S
ROLLA          FAIR      66  66 100 SE6       29.80F
WALHALLA       FAIR      82  68  61 S13G20    29.78R
$$

CITY           SKY/WX    TMP DP  RH WIND       PRES   REMARKS
ABERDEEN       CLOUDY    82  67  60 SE13      29.73F
MOBRIDGE       CLOUDY    80  70  71 SE16      29.68S
BUFFALO          N/A     82  59  45 NW26G37   29.67R
RAPID CITY     PTSUNNY   85  60  42 SE6       29.72F
GLASGOW        PTSUNNY   76  57  51 W8        29.77S
SIDNEY         CLOUDY    66  63  88 CALM      29.76S
WOLF POINT     CLOUDY    77  60  55 SW3       29.75R
GLENDIVE       CLOUDY    70  61  73 CALM      29.78F
MILES CITY     PTSUNNY   82  52  35 N15       29.77S
BAKER          CLOUDY    73  55  53 N17       29.79R
$$

CITY           SKY/WX    TMP DP  RH WIND       PRES   REMARKS
BILLINGS       MOSUNNY   80  46  30 S7        29.84F
GREAT FALLS    LGT RAIN  67  50  54 CALM      29.83F
REGINA         MOSUNNY   70  66  88 W3        29.72F
ESTEVAN        CLOUDY    75  64  69 SE6       29.75R
$$




USA.gov is the U.S. government's official web portal to all federal, state and local government web resources and services.